SCP
0 0 0 0 1 1 1 1 1 1 1 1 1 0 0 0 0 0 0 0 0 0 0 0 0 0 0 0 0 0 0 0 0 0 0 0 0 0 0 0 0 0 0
0 0 0 1 1 1 1 1 1 1 1 1 1 1 0 0 0 0 0 0 0 0 0 0 0 0 0 0 0 0 0 0 0 0 0 0 0 0 0 0 0 0 0
0 0 0 1 1 1 1 1 1 1 1 1 1 1 0 0 0 0 0 0 0 0 0 0 0 0 0 0 0 0 0 0 0 0 0 0 0 0 0 0 0 0 0
0 0 0 0 0 1 1 1 1 1 1 1 1 1 1 0 0 0 0 0 0 0 0 0 0 0 0 0 0 0 0 0 0 0 0 0 0 0 0 0 0 0 0
0 0 0 0 0 0 1 1 1 1 1 1 1 1 1 1 0 0 0 0 0 0 0 0 0 0 0 0 0 0 0 0 0 0 0 0 0 0 0 0 0 0 0
0 0 0 0 0 0 1 1 1 1 1 1 1 1 1 1 0 0 0 0 0 0 0 0 0 0 0 0 0 0 0 0 0 0 0 0 0 0 0 0 0 0 0
0 0 0 0 1 1 1 1 1 0 0 0 1 1 1 1 0 0 0 0 0 0 0 0 0 0 0 0 0 0 0 0 0 0 0 0 0 0 0 0 0 0 0
0 0 0 0 1 1 1 0 0 0 0 0 0 1 1 1 0 0 0 0 0 0 0 0 0 0 0 0 0 0 0 0 0 0 0 0 0 0 0 0 0 0 0
0 0 0 0 0 0 0 0 0 0 0 0 0 0 0 0 0 0 0 0 0 0 0 0 0 0 0 0 0 0 0 0 0 0 0 0 0 0 0 0 0 0 0
0 0 0 0 0 0 0 0 1 1 0 0 0 0 0 0 0 0 0 0 0 0 0 0 0 0 0 0 0 0 0 0 0 0 0 0 0 0 0 0 0 0 0
1 0 0 0 0 0 0 0 0 1 0 0 0 0 0 0 0 0 0 0 0 0 0 0 0 0 0 0 0 0 0 0 0 0 0 0 0 0 0 0 0 0 0
1 1 0 0 0 0 0 0 0 0 1 1 0 0 0 0 0 0 0 0 0 0 0 0 0 0 0 0 0 0 0 0 0 0 0 0 0 0 0 0 0 0 0
1 1 1 1 1 0 0 0 0 0 0 1 1 0 0 0 0 0 0 0 0 0 0 0 0 0 0 0 0 0 0 0 0 0 0 0 0 0 0 0 0 0 0
1 1 1 1 1 1 0 0 0 0 0 0 1 1 1 0 0 0 0 0 0 0 0 0 0 0 0 0 0 0 0 0 0 0 0 0 0 0 0 0 0 1 1
1 1 1 1 1 1 1 0 0 0 0 0 0 1 1 1 0 0 0 0 0 0 0 0 0 0 0 0 0 0 0 0 0 0 0 0 0 0 0 1 1 1 1
1 1 1 1 1 1 1 1 0 0 0 0 0 0 1 1 1 0 0 0 0 0 0 0 0 0 0 0 0 0 0 0 0 0 0 0 0 0 0 1 1 1 1
1 1 1 1 1 1 1 1 1 0 0 0 0 0 0 0 1 1 0 0 0 0 0 0 0 0 0 0 0 0 0 0 0 0 0 0 0 0 0 1 1 1 1
1 1 1 1 1 1 1 1 1 0 0 0 0 0 0 0 0 1 1 0 0 0 0 0 0 0 0 0 0 0 0 0 0 0 0 0 0 0 1 1 1 1 1
1 1 1 1 0 0 0 1 1 0 0 0 0 0 0 0 0 0 1 1 0 0 0 0 0 0 0 0 0 0 0 0 0 0 0 0 0 0 0 1 1 1 1
1 1 1 1 1 0 0 1 1 1 1 0 0 0 0 0 0 1 1 1 1 1 1 1 1 0 0 0 0 0 0 0 0 0 0 0 0 0 0 0 1 1 1
1 1 1 1 1 1 1 1 1 1 1 1 0 0 0 1 1 1 1 1 1 1 1 1 1 1 0 0 0 0 0 0 0 0 0 0 0 0 0 0 0 1 1
1 1 1 1 1 1 1 1 1 1 1 1 1 1 1 1 1 1 1 1 1 1 1 1 1 1 1 1 1 0 0 0 0 0 0 0 0 0 0 0 0 1 1
1 1 1 1 1 1 1 1 1 1 1 1 1 1 1 1 1 1 1 1 1 1 1 1 1 1 1 1 1 1 1 1 0 0 0 0 0 0 0 0 0 1 1
1 1 1 1 1 1 1 1 1 1 1 1 1 1 1 1 1 1 1 1 1 1 1 1 1 1 1 1 1 1 1 1 1 1 0 0 0 1 1 1 1 1 1
1 1 1 1 1 1 1 1 1 1 1 1 1 1 1 1 1 1 1 1 1 1 1 1 2 2 2 2 2 2 2 1 1 1 1 1 0 0 1 1 1 1 1
2 2 2 2 2 1 1 1 1 1 1 1 1 1 1 1 1 1 1 1 1 2 2 2 2 2 2 2 2 2 2 2 1 1 1 1 0 0 0 1 1 1 1
Wind_Speed
0 1 8 10 13 14 15 15 16 16 16 16 16 16 16 16 16 15 14 14 14 13 13 13 12 13 12 12 12 12 12 12 12 13 12 13 12 12 13 13 12 9 13
3 3 10 12 13 14 14 15 15 16 16 16 16 16 16 15 15 14 14 13 13 12 12 12 12 12 12 12 12 12 12 11 12 12 11 11 11 11 12 12 11 8 12
4 4 8 12 13 13 14 14 15 15 15 15 15 15 14 14 14 13 13 12 12 12 11 11 12 12 12 12 11 11 11 11 11 11 10 6 7 10 11 11 11 11 10
5 4 7 12 12 12 13 13 14 14 14 14 14 13 13 13 12 12 11 11 11 11 10 11 11 11 11 11 10 10 10 10 10 9 5 5 5 8 9 10 10 10 10
5 4 6 12 12 12 12 12 12 12 12 13 12 12 12 12 11 11 10 10 10 10 10 9 10 10 10 9 9 9 9 9 9 7 4 4 3 7 9 9 10 10 9
5 4 6 11 11 11 11 11 11 11 11 11 11 11 11 11 10 10 9 9 9 9 9 8 8 9 9 8 8 8 8 8 7 5 4 3 3 7 8 9 9 9 9
5 4 5 11 10 10 10 10 10 10 10 10 10 10 10 9 9 9 8 8 8 8 8 8 8 8 8 8 7 7 7 7 5 4 3 3 4 7 8 8 8 8 8
5 4 4 10 11 10 9 9 9 9 9 9 9 9 9 8 8 7 7 7 7 7 7 7 7 7 7 6 6 6 6 6 5 4 3 3 5 7 8 8 8 8 8
4 4 3 3 6 9 9 9 9 9 9 8 8 8 8 8 7 7 6 6 6 6 6 6 6 6 6 6 6 5 5 5 4 3 3 3 5 8 8 8 8 8 8
3 3 2 2 2 3 4 7 8 8 8 8 7 7 7 6 6 6 5 4 5 5 5 5 5 5 5 4 4 4 4 4 3 3 2 3 7 8 9 9 9 8 8
4 2 2 2 2 2 2 4 6 7 7 6 5 6 5 2 2 2 4 5 5 5 5 4 4 4 3 3 3 4 3 2 3 2 2 5 7 9 9 9 9 9 9
6 4 3 3 3 3 3 2 1 1 2 2 2 2 2 1 1 1 2 4 4 4 4 4 3 2 2 1 1 2 1 2 2 2 3 7 8 9 9 10 10 10 10
6 5 5 4 4 3 2 2 1 1 1 1 2 2 1 1 0 0 0 0 0 1 0 0 1 1 1 1 0 1 2 2 2 2 3 8 9 9 10 10 11 11 11
6 6 5 5 4 3 2 2 2 1 1 1 1 2 2 1 1 1 0 0 0 0 1 1 0 0 1 1 1 2 2 2 2 2 3 8 9 10 11 11 12 12 12
7 7 6 6 5 4 3 2 2 2 2 2 2 2 3 2 2 1 1 1 1 1 1 1 1 1 1 1 2 2 3 3 4 4 3 8 9 10 11 11 12 13 13
8 7 6 6 6 5 4 3 3 3 2 2 2 3 3 2 2 2 1 1 1 1 1 1 2 2 2 2 2 3 3 3 4 4 4 5 9 10 10 11 12 13 13
8 7 7 7 6 6 5 5 3 3 3 3 3 3 3 3 3 2 2 2 2 1 1 1 1 1 2 2 2 3 3 4 4 4 5 4 5 8 11 11 12 12 13
7 7 7 8 7 7 5 4 3 3 3 3 3 3 3 4 4 3 2 2 2 1 1 1 1 1 1 1 2 2 2 3 4 4 4 4 4 5 7 11 12 13 14
8 8 8 7 7 7 6 4 3 3 3 3 3 3 3 4 4 3 3 2 2 1 1 2 1 1 2 2 2 2 2 3 4 4 5 5 5 5 5 7 11 12 14
8 8 8 7 6 6 4 2 2 2 2 2 3 3 4 4 4 4 3 3 2 2 2 1 1 1 1 1 2 2 2 3 3 3 4 4 4 6 6 6 6 7 12
7 8 8 7 6 5 3 3 3 3 2 2 3 4 5 4 4 4 3 3 3 3 3 3 1 1 1 1 0 2 2 2 2 2 2 3 4 4 5 5 5 4 4
10 9 8 8 7 7 5 3 3 2 2 2 2 3 4 4 5 5 4 3 3 3 3 3 2 1 1 1 1 0 2 3 2 1 1 2 3 2 3 4 4 5 4
11 11 10 9 8 7 6 3 2 1 0 1 2 2 3 4 4 4 5 4 4 4 3 4 4 4 2 1 2 2 1 2 3 2 2 1 1 1 2 2 3 4 4
12 10 9 9 8 7 7 5 5 4 4 4 3 3 3 3 4 4 4 4 4 4 4 4 4 3 3 2 2 2 2 2 1 2 2 2 2 2 2 2 2 2 2
10 9 8 7 7 6 7 8 7 5 4 2 2 3 3 3 3 4 4 4 4 4 4 4 3 4 3 3 3 2 2 1 2 2 3 3 2 2 1 1 1 1 1
9 8 8 7 6 6 7 7 7 7 5 4 4 3 3 2 2 3 3 4 4 3 4 4 4 4 4 4 3 3 3 2 3 3 3 3 2 2 1 1 1 1 1
Wind_Direction
160 168 133 123 117 114 115 118 118 118 119 120 121 123 123 123 122 122 122 120 119 119 117 116 116 116 117 116 114 114 115 116 116 116 116 116 116 115 114 112 111 113 115
145 137 129 124 120 119 119 119 119 119 121 122 124 125 126 126 125 124 123 122 121 120 119 118 118 117 118 119 119 118 119 120 121 122 120 120 120 119 120 118 119 122 122
122 119 124 125 121 121 121 121 121 122 121 120 121 124 126 127 126 125 124 123 122 121 121 122 123 122 123 124 123 122 121 122 121 120 114 106 118 125 128 127 126 126 124
123 116 127 128 124 122 121 123 123 123 123 122 122 123 125 126 127 127 127 126 125 125 125 126 126 125 126 127 127 125 124 124 121 119 106 112 121 131 134 133 131 129 127
117 115 135 132 127 127 123 125 125 126 126 126 126 127 127 127 128 130 131 130 129 128 128 129 130 129 131 132 131 130 131 130 124 117 111 112 114 139 141 140 137 134 132
123 127 141 135 130 129 128 126 126 129 129 130 131 132 131 132 130 131 133 133 133 134 134 136 136 136 136 136 135 136 136 134 119 114 120 131 142 154 151 148 146 142 141
131 132 143 141 138 135 132 131 132 133 133 133 135 136 136 135 134 134 136 138 140 140 140 140 138 140 141 140 140 140 143 140 128 128 136 149 162 163 158 154 151 149 148
136 134 140 147 144 144 144 141 140 140 139 139 137 139 141 141 141 140 141 142 145 148 149 148 146 147 145 144 142 139 145 145 138 142 147 160 170 166 163 163 160 158 154
127 127 128 142 147 151 153 150 148 146 146 144 141 144 148 149 150 150 148 150 151 151 153 155 155 154 147 144 143 140 147 150 135 147 159 160 179 177 174 174 170 169 167
125 130 133 125 122 135 152 157 156 155 154 151 149 151 151 157 158 156 152 159 162 160 161 164 164 160 150 146 148 150 153 140 146 154 161 181 189 187 186 184 181 178 177
166 160 154 148 139 137 154 170 162 162 163 157 158 160 144 108 108 143 168 179 178 175 173 175 171 169 159 144 157 162 147 144 161 179 186 198 200 198 196 194 191 188 188
188 185 177 172 166 163 175 139 119 130 126 118 108 117 105 103 124 170 195 200 195 191 189 189 183 166 132 99 155 157 140 168 177 200 208 208 209 209 206 202 199 199 198
187 187 181 179 175 173 164 140 123 109 110 121 134 134 125 114 96 72 70 285 259 212 174 151 109 100 121 142 159 178 189 188 197 209 216 218 216 216 214 209 206 205 205
183 192 184 178 178 182 173 163 151 148 154 169 177 164 153 160 183 194 170 203 200 163 144 119 110 206 225 224 220 221 218 211 213 214 226 226 221 223 223 216 213 211 210
190 195 188 180 184 183 176 186 175 181 186 195 196 191 180 183 199 200 205 209 203 180 179 179 180 221 247 266 258 237 235 227 225 225 231 233 229 227 227 222 219 217 215
193 194 187 185 186 180 183 191 190 189 192 198 210 209 192 188 194 195 209 208 212 199 191 189 197 214 237 247 260 251 245 240 232 230 229 237 238 231 230 229 224 221 221
192 190 187 190 184 183 190 197 197 196 192 202 212 206 198 191 193 193 204 215 215 195 183 183 207 212 230 238 251 252 246 244 242 236 232 231 238 237 234 231 228 226 226
184 185 191 194 184 189 191 194 194 194 194 206 206 204 205 197 192 192 205 223 210 172 168 181 195 210 235 236 249 258 248 247 247 241 235 231 229 234 235 232 231 231 231
184 183 187 189 182 188 189 188 192 192 199 205 200 206 209 204 197 192 206 217 196 181 192 209 189 194 230 247 252 253 253 249 250 249 241 235 230 231 234 239 239 236 235
182 183 187 188 184 176 167 162 170 203 215 208 208 211 208 207 200 192 205 209 188 187 210 212 210 210 230 250 274 280 274 265 254 247 247 241 235 235 235 239 241 243 241
178 183 188 189 184 168 162 171 182 208 213 216 219 216 208 206 201 196 209 203 193 201 212 204 194 210 237 196 331 320 312 291 271 255 247 242 244 245 240 236 234 236 246
186 188 190 194 186 183 184 175 173 179 199 209 219 215 209 207 204 206 205 205 200 201 210 202 184 178 228 162 156 21 334 334 326 309 262 240 249 247 244 238 231 231 237
192 192 194 194 189 189 182 153 128 109 90 184 215 221 221 212 209 210 206 202 201 198 214 216 194 190 207 208 184 167 173 260 308 321 319 294 281 266 258 247 237 236 235
198 193 192 188 188 187 175 174 180 191 206 213 206 212 223 214 213 209 205 201 203 199 212 224 208 196 189 210 208 211 201 186 221 317 322 323 319 301 288 272 265 250 239
190 186 186 183 187 184 182 186 190 205 212 209 205 216 222 220 218 213 201 198 204 205 210 215 206 201 196 200 197 192 198 194 198 216 284 311 324 312 295 278 272 267 262
183 180 176 176 185 182 185 190 194 202 203 201 210 216 222 220 222 218 202 200 206 208 212 212 209 208 208 205 202 196 186 185 195 199 236 268 289 299 313 314 295 281 267